Regional Weather Roundup
Issued by NWS Glasgow, MT

Home | Current Version | Previous Version | Text Only | Print | Product List | Glossary On
Versions: 1 2 3 4 5 6 7 8 9 10 11 12 13 14 15 16 17 18 19 20 21 22 23 24 25 26 27 28 29 30 31 32 33 34 35 36 37 38 39 40 41 42 43 44 45 46 47 48 49 50
000
ASUS45 KGGW 222015
RWRGGW
HOURLY WEATHER ROUNDUP FOR NORTHEAST MONTANA
NATIONAL WEATHER SERVICE GLASGOW MONTANA
100 PM MST MON DEC 22 2014

NOTE: "FAIR" INDICATES FEW OR NO CLOUDS BELOW 12,000 FEET WITH NO
SIGNIFICANT WEATHER AND/OR OBSTRUCTIONS TO VISISBILITY.

NORTHEAST MONTANA


CITY           SKY/WX    TMP DP  RH WIND       PRES   REMARKS
GLASGOW        CLOUDY    30  25  81 N20       29.73R
PLENTYWOOD       N/A     27  24  89 N16         N/A
WOLF POINT     LGT SNOW  28  22  78 NW17      29.75R VSB 3/4
JORDAN           N/A     36  27  69 NW30G37   29.74
WINNETT          N/A     42  25  50 W18G26      N/A
SIDNEY         CLOUDY    27  21  80 NW17      29.68R
GLENDIVE       CLOUDY    27  23  86 NW22      29.67R
MALTA            N/A     39  30  70 NW13G22     N/A
SCOBEY           N/A     23  16  74 W15G24    29.70R

FORT PECK REPORTS


CITY           SKY/WX    TMP DP  RH WIND       PRES   REMARKS
FORT PECK        N/A     32  29  88 NW15        N/A
THE PINES        N/A     34  27  75 NW9         N/A

SOUTHEAST MONTANA


CITY           SKY/WX    TMP DP  RH WIND       PRES   REMARKS
BILLINGS       PTSUNNY   41  23  48 NW17G28   29.81S
MILES CITY     CLOUDY    34  26  72 NW20G31   29.72R
BAKER          SNOW      26  24  92 NW25G37   29.63R VSB 1/2
LIVINGSTON     CLOUDY    36  21  54 SW17      29.88R

CENTRAL MONTANA


CITY           SKY/WX    TMP DP  RH WIND       PRES   REMARKS
HAVRE          CLOUDY    39  28  64 W9        29.86R
LEWISTOWN      CLOUDY    37  22  54 NW15      29.84R
GREAT FALLS    CLOUDY    41  19  41 NW14      29.89R
CUT BANK       CLOUDY    36  27  69 NW26G32   29.92R
HELENA         CLOUDY    40  22  48 W10       29.93R
BUTTE          PTSUNNY   31  19  61 NW10      29.95R
BOZEMAN        CLOUDY    34  25  69 E6        29.93R

WESTERN MONTANA


CITY           SKY/WX    TMP DP  RH WIND       PRES   REMARKS
MISSOULA       CLOUDY    39  26  59 NW12      30.06R
KALISPELL      NOT AVBL

NORTH DAKOTA


CITY           SKY/WX    TMP DP  RH WIND       PRES   REMARKS
WILLISTON      CLOUDY    27  22  81 N13       29.64R
DICKINSON      SNOW      26  23  88 NW18      29.54R VSB 1/2
MINOT          CLOUDY    28  26  92 N15       29.57R
BISMARCK       CLOUDY    31  29  92 N13       29.51S

SOUTHERN SASKATCHEWAN


CITY           SKY/WX    TMP DP  RH WIND       PRES   REMARKS
REGINA         CLOUDY    25  23  93 N13       29.73  FOG
ESTEVAN        CLOUDY    28  27  93 NW10      29.64  FOG
SWIFT CURRENT  LGT SNOW  21  19  93 NW17      29.76R



USA.gov is the U.S. government's official web portal to all federal, state and local government web resources and services.